This demonstration page uses our WeatherBlox Daily Observations layout. Learn more.

Left ArrowRight Arrow

Hourly Observations for November 6, 2020

Temp ( °F °C ) Dew Point ( °F °C ) Humidity (%) Winds ( mph kmh ) Pressure ( in mb ) Visibility ( mi km ) Precip ( " mm )
12:56 am 00:56 Clear 45 7.2 32 0 61 61 SSW 8 13 30.07 1018 10 16 0.00 0.00
1:56 am 01:56 Clear 49 9.4 33 0.6 55 55 SSW 9 15 30.05 1018 10 16 0.00 0.00
2:56 am 02:56 Clear 48 8.9 33 0.6 56 56 SSW 9 15 30.04 1017 10 16 0.00 0.00
3:56 am 03:56 Clear 51 10.6 33 0.6 50 50 SW 9 15 30.02 1017 10 16 0.00 0.00
4:56 am 04:56 Clear 48 8.9 33 0.6 56 56 SW 12 19 30.02 1017 10 16 0.00 0.00
5:56 am 05:56 Clear 45 7.2 32 0 61 61 SSW 10 17 30.04 1017 10 16 0.00 0.00
6:56 am 06:56 Clear 40 4.4 30 -1.1 68 68 SSW 7 11 30.04 1017 10 16 0.00 0.00
7:56 am 07:56 Sunny 39 3.9 31 -0.6 73 73 S 8 13 30.03 1017 10 16 0.00 0.00
8:56 am 08:56 Sunny 53 11.7 33 0.6 47 47 SSW 9 15 30.01 1016 10 16 0.00 0.00
9:56 am 09:56 Sunny 65 18.3 35 1.7 33 33 SSW 13 20 30.00 1016 10 16 0.00 0.00
10:56 am 10:56 Sunny 70 21.1 34 1.1 27 27 SSW 17 28 29.97 1015 10 16 0.00 0.00
11:56 am 11:56 Sunny 74 23.3 34 1.1 23 23 SSW 20 31 29.94 1014 10 16 0.00 0.00
12:56 pm 12:56 Sunny 77 25 32 0 19 19 SSW 23 37 29.90 1013 10 16 0.00 0.00
1:56 pm 13:56 Sunny 78 25.6 33 0.6 19 19 S 22 35 29.87 1011 10 16 0.00 0.00
3:56 pm 15:56 Sunny 78 25.6 33 0.6 19 19 S 20 31 29.84 1010 10 16 0.00 0.00
4:56 pm 16:56 Sunny 75 23.9 34 1.1 22 22 S 16 26 29.84 1010 10 16 0.00 0.00
5:56 pm 17:56 Clear 69 20.6 38 3.3 32 32 S 18 30 29.85 1011 10 16 0.00 0.00
6:56 pm 18:56 Clear 66 18.9 38 3.3 36 36 S 18 30 29.86 1011 10 16 0.00 0.00
7:56 pm 19:56 Clear 63 17.2 42 5.6 47 47 S 18 30 29.87 1012 10 16 0.00 0.00
8:56 pm 20:56 Clear 63 17.2 50 10 63 63 S 25 41 29.84 1011 10 16 0.00 0.00
9:56 pm 21:56 Clear 62 16.7 53 11.7 73 73 S 24 39 29.84 1011 10 16 0.00 0.00
10:56 pm 22:56 Clear 61 16.1 54 12.2 78 78 S 17 28 29.84 1011 10 16 0.00 0.00
11:56 pm 23:56 Clear 61 16.1 54 12.2 78 78 S 23 37 29.82 1010 10 16 0.00 0.00

Powered by AerisWeather